This is the latest recevied weather packets stored in our database for station/object IU1OLT-7. If no packets are shown the sender has not sent any weather packets the latest 10 day(s).
| Time | Temp. | Humidity | Pressure | Rain* | Wind** | Luminosity | Snow |
|---|---|---|---|---|---|---|---|
| 1788449175 | 36.67° C | 31% | 1025.1 hPa | - | - | - | - |
| 1788448273 | 35.56° C | 33% | 1025 hPa | - | - | - | - |
| 1788447380 | 34.44° C | 33% | 1025.2 hPa | - | - | - | - |
| 1788446473 | 37.78° C | 30% | 1025.1 hPa | - | - | - | - |
| 1788445573 | 37.78° C | 28% | 1025.2 hPa | - | - | - | - |
| 1788444673 | 38.33° C | 27% | 1025.3 hPa | - | - | - | - |
| 1788443773 | 37.78° C | 29% | 1025.4 hPa | - | - | - | - |
| 1788442880 | 34.44° C | 32% | 1025.4 hPa | - | - | - | - |
| 1788441070 | 31.11° C | 39% | 1025.6 hPa | - | - | - | - |
| 1788440170 | 31.67° C | 35% | 1025.5 hPa | - | - | - | - |
| 1788439271 | 33.33° C | 30% | 1025.3 hPa | - | - | - | - |
| 1788438379 | 40° C | 23% | 1025.2 hPa | - | - | - | - |
| 1788437477 | 37.22° C | 26% | 1025.4 hPa | - | - | - | - |
| 1788436570 | 39.44° C | 25% | 1025.4 hPa | - | - | - | - |
| 1788435670 | 34.44° C | 29% | 1025.5 hPa | - | - | - | - |
| 1788434770 | 34.44° C | 27% | 1025.5 hPa | - | - | - | - |
| 1788433870 | 35.56° C | 27% | 1025.7 hPa | - | - | - | - |
| 1788432970 | 35.56° C | 27% | 1025.6 hPa | - | - | - | - |
| 1788432070 | 33.33° C | 28% | 1025.9 hPa | - | - | - | - |
| 1788431170 | 36.11° C | 27% | 1025.9 hPa | - | - | - | - |
| 1788430270 | 33.89° C | 29% | 1025.9 hPa | - | - | - | - |
| 1788429370 | 36.67° C | 25% | 1025.9 hPa | - | - | - | - |
| 1788428470 | 33.89° C | 30% | 1026.1 hPa | - | - | - | - |
| 1788427570 | 33.89° C | 31% | 1026.2 hPa | - | - | - | - |
| 1788426670 | 31.11° C | 34% | 1026.2 hPa | - | - | - | - |
* Rain since midnight (hover to see other rain measurements)
** Current wind speed in m/s (hover to see current wind gust speed)